Regional Weather Roundup
Issued by NWS

Home | Current Version | Previous Version | Graphics & Text | Print | Product List | Glossary Off
Versions: 1 2 3 4 5 6 7 8 9 10 11 12 13 14 15 16 17 18 19 20 21 22 23 24 25 26 27 28 29 30 31 32 33 34 35 36 37 38 39 40 41 42 43 44 45 46 47 48 49 50

000
ASUS43 KMKX 300211
RWRWI

WISCONSIN REGIONAL WEATHER ROUNDUP
NATIONAL WEATHER SERVICE MILWAUKEE/SULLIVAN WI
900 PM CDT SUN MAY 29 2016

NOTE: "FAIR" INDICATES FEW OR NO CLOUDS BELOW 12,000 FEET WITH NO
SIGNIFICANT WEATHER AND/OR OBSTRUCTIONS TO VISIBILITY.

WIZ001-002-006>008-014>016-023>028-300300-
NORTHWEST WISCONSIN

CITY           SKY/WX    TMP DP  RH WIND       PRES   REMARKS
SUPERIOR ARPT  CLEAR     63  53  68 W3        29.90S
ASHLAND        CLEAR     61  52  72 VRB3      29.91R
HAYWARD        CLEAR     63  55  75 CALM      29.93R
SIREN          CLEAR     65  54  67 CALM      29.93S
CUMBERLAND     CLEAR     63  55  77 W3        29.94R
RICE LAKE      MOCLDY    67  57  70 CALM      29.95R
CHETEK         RAIN      65  60  82 W5        29.94R
LADYSMITH      PTCLDY    66  56  69 CALM      29.95R
EAU CLAIRE     CLEAR     67  56  67 W5        29.92S
MENOMONIE      CLEAR     68  55  62 W3        29.93S
NEW RICHMOND   CLOUDY    66  55  67 W5        29.94S
OSCEOLA        CLEAR     68  54  60 W6        29.96S
$$

WIZ003>005-009-010-017-018-300300-
NORTH CENTRAL WISCONSIN

CITY           SKY/WX    TMP DP  RH WIND       PRES   REMARKS
MANITOWISH WTR NOT AVBL
ARBOR VITAE    PTCLDY    60  57  91 CALM        N/A
WOODRUFF       PTCLDY    60  57  91 CALM        N/A
RHINELANDER    PTCLDY    63  54  72 W6        29.93S
EAGLE RIVER      N/A     59  53  82 W3        29.93R
LAND O LAKES   CLEAR     60  58  94 CALM      29.93R
PHILLIPS       PTCLDY    62  57  83 CALM      29.92S
TOMAHAWK       MOCLDY    59  55  87 CALM      29.94R
MEDFORD        CLEAR     63  57  82 W3        29.93F
MERRILL        CLEAR     63  55  77 W3        29.94R
$$

WIZ029-030-035-036-043>047-300300-
CENTRAL WISCONSIN

CITY           SKY/WX    TMP DP  RH WIND       PRES   REMARKS
WAUSAU         CLEAR     66  55  67 W6        29.92R
MOSINEE        CLEAR     64  55  72 W5        29.95R
MARSHFIELD     CLEAR     66  56  70 SW3       29.93S
STEVENS POINT  CLEAR     66  56  69 CALM      29.94S
WAUPACA        CLEAR     71  56  58 W5        29.93R
WAUTOMA        CLEAR     69  56  62 W6        29.94R
WISC RAPIDS    CLEAR     66  54  65 CALM      29.95R
CAMP DOUGLAS   CLOUDY    64  64 100 SW3       29.94S
$$

WIZ011>013-019>022-031-037>040-048>050-300300-
NORTHEAST WISCONSIN

CITY           SKY/WX    TMP DP  RH WIND       PRES   REMARKS
ANTIGO         CLEAR     62  55  79 CALM      29.93S
SHAWANO        CLEAR     70  58  66 W5        29.91R
OCONTO         PTCLDY    69  60  74 W7        29.89R
STURGEON BAY   NOT AVBL
GREEN BAY      CLEAR     70  59  68 W7        29.90S
MANITOWOC      PTCLDY    71  60  68 SW3       29.92R
APPLETON       PTCLDY    66  55  68 W7        29.90F
CLINTONVILLE   CLEAR     68  55  64 W5        29.91S
OSHKOSH        CLEAR     68  57  68 VRB3      29.92R
$$

WIZ032>034-041-042-053>061-300300-
SOUTHWEST WISCONSIN

CITY           SKY/WX    TMP DP  RH WIND       PRES   REMARKS
LA CROSSE      CLEAR     69  58  67 SW5       29.94S
SPARTA         CLOUDY    68  57  68 CALM      29.95S
VIROQUA        CLEAR     66  61  83 CALM      29.97S
BOSCOBEL       CLEAR     69  61  75 N5        29.95S
PRAIRIE DU CHI CLEAR     70  58  65 CALM      29.96S
PLATTEVILLE    CLEAR     69  61  75 SW6       29.98S
$$

WIZ056-057-062-063-064-067-068-300300-
SOUTH CENTRAL WISCONSIN

CITY           SKY/WX    TMP DP  RH WIND       PRES   REMARKS
REEDSBURG      CLOUDY    66  63  89 SW3       29.95S
BARABOO/DELLS  CLOUDY    68  59  73 SW7       29.96R
LONE ROCK      CLOUDY    68  59  73 CALM      29.97R
MINERAL POINT  CLEAR     70  59  68 SW5       29.98S
MADISON        PTCLDY    69  57  65 SW5       29.96S
MIDDLETON      CLEAR     66  59  77 CALM      29.97S
WATERTOWN      PTCLDY    68  59  73 SW5       29.95F
MONROE         PTCLDY    72  55  56 SW6       29.98S
JANESVILLE     PTCLDY    72  57  60 W5        29.97S
$$

WIZ051-052-058>065-066-070>072-300300-
SOUTHEAST WISCONSIN

CITY           SKY/WX    TMP DP  RH WIND       PRES   REMARKS
MILWAUKEE      PTCLDY    74  57  55 W7        29.95R
WAUKESHA       PTCLDY    68  55  64 W7        29.97S
MILWAUKEE/TIMM CLEAR     72  54  53 MISG      29.96R
RACINE         CLEAR     72  56  57 W5        29.97S
BURLINGTON     MOCLDY    71  56  60 W3        29.97S
KENOSHA        MOCLDY    68  58  70 W6        29.97S
FOND DU LAC    CLEAR     70  58  65 SW6       29.93R
SHEBOYGAN        N/A     67  59  75 SW5       29.92R
WEST BEND      CLEAR     70  55  60 W8        29.95R
JUNEAU         PTCLDY    67  58  72 SW8       29.96R
$$

LSZ147-162-300300-
LAKE SUPERIOR

STATION/POSITION TIME  TEMP    WIND        PRES    WAVE
                       AIR SEA DIR/SP/G            HT/PER
                 (UTC) (F)     (DEG/KT/KT) (MB)    (FT/S)
W MID LAKE BUOY  0150   44 38  240/ 10/ 12 1011.2R   2/ 4
DEVILS ISLAND    0200   51     230/ 10/ 12 1012.3R
PORT WING        0100   60     270/  8/ 10 1012.5
SAXON HARBOR     0100   64      CALM  /  5 1011.9
$$

LMZ867-665-643>646-300300-
LAKE MICHIGAN

STATION/POSITION TIME  TEMP    WIND        PRES    WAVE
                       AIR SEA DIR/SP/G            HT/PER
                 (UTC) (F)     (DEG/KT/KT) (MB)    (FT/S)
CHAMBERS ISLAND  0100   65     250/  2/  9 1011.5R
N MID LAKE BUOY  0150   51 48  210/  8/ 10 1011.3R   3/ 5
NORTHPORT PIER   0120   63     290/  8/ 21 1011.9R
KEWAUNEE LAKESHO 0100                      1011.6R
SHEBOYGAN LAKESH 0200   73     230/  4/  5 1013.3R
PORT WASHINGTON  0100   77     250/  4/  8 1014.2R
S MID LAKE BUOY  0150   57 51  220/  8/ 10 1014.0R   1
KENOSHA   LAKESH 0200   76     250/  6/  9 1014.2S
$$

TC  - TEMPERATURE IN CELSIUS
VSB - VISIBILITY IN STATUTE MILES
WCI - WIND CHILL INDEX
HX  - HEAT INDEX





USA.gov is the U.S. government's official web portal to all federal, state and local government web resources and services.